User: anonymous   Login
Location: Writing-on-Stone Provincial Park
(49.0825°N, 111.6163°W)
Time: 13:36:45
(UTC-07:00)
Language:

BREEZE-M DEB (TANK) - Orbit

View from above orbital plane
View from above orbital plane
View from above satellite
View from above satellite

Ground track
Ground track

The orbit data is extracted from the following two-line orbital elements,

1 29649U 06056B   17057.87427955 +.00002015 +00000-0 +43630-3 0  9991
2 29649 049.4918 314.3278 5376658 092.5296 326.9646 04.99264121182272
Epoch (UTC): 26 February 2017 20:58:57
Eccentricity: 0.5376658
inclination: 49.4918°
perigee height: 307 km
apogee height: 15857 km
right ascension of ascending node: 314.3278°
argument of perigee: 92.5296°
revolutions per day: 4.99264121
mean anomaly at epoch: 326.9646°
orbit number at epoch: 18227

The dashed part of the orbit path shows where the satellite is in the earth's shadow,  

DLR